EW2565 Weather Reports


time (UTC)temp
F
wind
direction
speed
knots
gust
knots
rain 1hr
in
rain 24hr
in
rain mn
in
humidity
%
barometer
mb
20260906231516 76 134 0.9 3.5 0.00 0.01 0.00 29 1002.0
20260906230020 76 134 1.7 6.1 0.00 0.01 0.00 29 1001.9
20260906224515 76 134 2.6 5.2 0.00 0.01 0.00 28 1002.0
20260906223014 76 134 3.5 7.0 0.00 0.01 0.00 27 1002.1
20260906221512 76 134 1.7 4.3 0.00 0.01 0.00 27 1002.3
20260906220017 76 134 1.7 7.0 0.00 0.01 0.00 27 1002.3
20260906214524 76 134 1.7 7.0 0.00 0.01 0.00 26 1002.4
20260906213014 77 134 1.7 5.2 0.00 0.01 0.00 25 1002.3
20260906211512 77 134 2.6 6.1 0.00 0.01 0.00 24 1002.6
20260906210009 77 134 2.6 5.2 0.00 0.01 0.00 23 1002.6
20260906204509 77 134 0.9 7.8 0.00 0.01 0.00 23 1002.8
20260906203008 77 134 4.3 8.7 0.00 0.01 0.00 23 1002.9
20260906201505 77 134 2.6 7.0 0.00 0.01 0.00 23 1003.0
20260906200004 76 134 2.6 5.2 0.00 0.01 0.00 23 1003.1
20260906194503 76 134 0.0 3.5 0.00 0.01 0.00 27 1003.2
20260906193102 77 134 0.9 5.2 0.00 0.01 0.00 28 1003.3
20260906191558 75 134 0.9 4.3 0.00 0.01 0.00 31 1003.5
20260906190139 75 134 1.7 4.3 0.00 0.01 0.00 33 1003.8
20260906184554 74 134 1.7 5.2 0.00 0.02 0.00 36 1004.1
20260906183059 74 134 0.9 3.5 0.00 0.02 0.00 36 1004.3
20260906181551 75 134 0.9 3.5 0.00 0.02 0.00 36 1004.6
20260906180050 73 134 0.9 3.5 0.00 0.02 0.00 37 1004.9
20260906174548 71 134 0.9 3.5 0.00 0.03 0.00 42 1005.3
20260906173053 70 134 0.9 3.5 0.00 0.03 0.00 44 1005.6
20260906171550 71 134 0.9 2.6 0.00 0.03 0.00 40 1005.7
20260906170046 71 134 0.0 2.6 0.00 0.03 0.00 37 1005.9
20260906164542 70 134 0.0 2.6 0.00 0.03 0.00 36 1006.1
20260906163039 69 134 0.0 1.7 0.00 0.03 0.00 41 1006.2
20260906161537 68 134 0.0 1.7 0.00 0.03 0.00 40 1006.3
20260906160038 66 134 0.0 1.7 0.00 0.03 0.00 47 1006.4
20260906154538 66 134 0.0 1.7 0.00 0.03 0.00 45 1006.6
20260906153033 64 134 0.0 0.0 0.00 0.03 0.00 47 1006.8
20260906151534 62 134 0.0 0.9 0.00 0.03 0.00 46 1006.9
20260906150033 59 134 0.0 0.9 0.00 0.03 0.00 49 1007.0
20260906144528 57 134 0.0 1.7 0.00 0.03 0.00 49 1006.9
20260906143031 56 134 0.0 0.9 0.00 0.03 0.00 52 1007.1
20260906141526 53 134 0.0 0.9 0.00 0.03 0.00 56 1007.0
20260906140041 52 134 0.0 0.9 0.00 0.03 0.00 56 1007.0
20260906134526 50 134 0.0 0.9 0.00 0.03 0.00 55 1006.7
20260906133026 48 134 0.0 0.9 0.00 0.03 0.00 59 1006.5
20260906131532 50 134 0.0 0.9 0.00 0.03 0.00 54 1006.5
20260906130021 51 134 0.0 0.9 0.00 0.03 0.00 52 1006.4
20260906124520 54 134 0.9 2.6 0.00 0.03 0.00 43 1006.3
20260906123020 54 134 0.9 2.6 0.00 0.03 0.00 45 1006.3
20260906121519 54 134 0.9 4.3 0.00 0.03 0.00 45 1006.4
20260906120023 54 134 1.7 2.6 0.00 0.03 0.00 42 1006.3
20260906114526 53 134 0.9 2.6 0.00 0.03 0.00 43 1006.3
20260906113018 53 134 0.0 2.6 0.00 0.03 0.00 46 1006.2
20260906111518 53 134 0.9 2.6 0.00 0.03 0.00 45 1006.1
20260906110017 52 134 0.0 0.0 0.00 0.03 0.00 49 1006.3
20260906104517 51 134 0.0 1.7 0.00 0.03 0.00 53 1006.2
20260906103015 51 134 0.0 0.0 0.00 0.03 0.00 54 1006.1
20260906101512 52 134 0.0 0.9 0.00 0.03 0.00 52 1005.9
20260906100011 54 134 0.0 1.7 0.00 0.03 0.00 47 1005.8
20260906094510 55 134 0.9 1.7 0.00 0.03 0.00 45 1005.6
20260906093025 54 134 0.0 1.7 0.00 0.03 0.00 52 1005.5
20260906091506 53 134 0.0 1.7 0.00 0.03 0.00 46 1005.5
20260906090003 56 134 0.0 1.7 0.00 0.03 0.00 42 1005.3
20260906084614 57 134 0.0 1.7 0.00 0.03 0.00 40 1005.5
20260906083058 57 134 0.9 1.7 0.00 0.03 0.00 39 1005.4
20260906081601 58 134 0.9 2.6 0.00 0.03 0.00 38 1005.3
20260906080107 58 134 0.9 2.6 0.00 0.03 0.00 37 1005.4
20260906074600 58 134 0.0 1.7 0.00 0.03 0.00 36 1005.5
20260906073056 58 134 0.9 2.6 0.00 0.03 0.00 39 1005.4
20260906071552 58 134 0.9 2.6 0.00 0.03 0.00 38 1005.2
20260906070053 59 134 0.9 2.6 0.00 0.03 0.00 39 1005.1
20260906064550 59 134 0.9 2.6 0.00 0.03 0.00 38 1005.1
20260906063053 60 134 0.9 2.6 0.00 0.03 0.00 38 1005.0
20260906061551 61 134 0.9 1.7 0.00 0.03 0.00 36 1005.0
20260906060045 61 134 0.9 2.6 0.00 0.03 0.00 34 1005.0
20260906054546 61 134 0.9 1.7 0.00 0.03 0.00 34 1004.9
20260906053055 61 134 0.9 2.6 0.00 0.03 0.00 33 1004.9
20260906051543 62 134 1.7 2.6 0.00 0.03 0.00 32 1004.9
20260906050046 62 134 1.7 2.6 0.00 0.03 0.00 32 1005.0
20260906044546 62 134 1.7 2.6 0.00 0.03 0.00 32 1005.1
20260906043045 64 134 0.9 2.6 0.00 0.03 0.00 29 1005.0
20260906041551 62 134 0.9 1.7 0.00 0.03 0.00 32 1005.0
20260906040038 61 134 0.9 2.6 0.00 0.03 0.00 34 1004.9
20260906034543 63 134 0.0 1.7 0.00 0.04 0.03 35 1004.9
20260906033036 65 134 0.0 3.5 0.00 0.04 0.03 30 1004.7
20260906031539 65 134 0.0 0.9 0.00 0.04 0.03 31 1004.6
20260906030043 67 134 1.7 2.6 0.00 0.04 0.03 26 1004.3
20260906024536 68 134 0.9 2.6 0.00 0.04 0.03 25 1004.1
20260906023035 69 134 0.9 2.6 0.00 0.04 0.03 24 1003.9
20260906021535 68 134 0.9 1.7 0.00 0.04 0.03 24 1003.9
20260906020034 69 134 0.9 2.6 0.00 0.04 0.03 24 1003.7
20260906014544 72 134 0.0 1.7 0.00 0.04 0.03 22 1003.8
20260906013033 72 134 0.0 1.7 0.00 0.04 0.03 22 1003.8
20260906011543 74 134 0.0 3.5 0.00 0.04 0.03 20 1003.9
20260906010056 76 134 0.9 3.5 0.00 0.04 0.03 20 1003.9
20260906004532 77 134 0.9 4.3 0.00 0.04 0.03 19 1003.7
20260906003031 77 134 1.7 6.1 0.00 0.04 0.03 18 1003.6
20260906001548 78 134 1.7 3.5 0.00 0.04 0.03 18 1003.4
20260906000033 78 134 2.6 7.8 0.01 0.04 0.03 18 1003.4
20260905234533 78 134 2.6 7.0 0.01 0.04 0.03 17 1003.3
20260905233033 78 134 2.6 9.6 0.01 0.04 0.03 20 1003.1